Location: Lake Sonoma
(38.7200°N, 123.0564°W)
Time: 06:32:42
(UTC-08:00)

ISS - All Passes

Search period start: 05 December 2016 00:00
Search period end: 15 December 2016 00:00
Orbit: 401 x 410 km, 51.6° (Epoch: 05 December)

Date Brightness Start Highest point End Pass type
(mag) Time Alt. Az. Time Alt. Az. Time Alt. Az.
05 Dec - 01:05:08 10° WSW 01:05:24 10° SW 01:05:39 10° SW night (unlit)
05 Dec - 16:05:04 10° SSW 16:08:13 48° SE 16:11:26 10° ENE daylight
05 Dec - 17:42:15 10° W 17:44:53 22° NNW 17:47:33 10° NNE visible
05 Dec - 20:58:51 10° N 21:00:08 12° NNE 21:01:24 10° NE night (unlit)
05 Dec - 22:34:12 10° NW 22:37:21 40° NNE 22:40:30 10° ESE night (unlit)
06 Dec - 00:11:09 10° W 00:13:39 20° SW 00:16:08 10° S night (unlit)
06 Dec - 15:13:42 10° S 15:16:23 24° SE 15:19:06 10° ENE daylight
06 Dec - 16:49:44 10° W 16:52:46 34° NNW 16:55:50 10° NE daylight
06 Dec - 18:29:04 10° NNW 18:30:03 11° NNW 18:31:02 10° N visible
06 Dec - 21:42:27 10° NNW 21:45:15 25° NNE 21:48:03 10° E night (unlit)
06 Dec - 23:18:43 10° WNW 23:21:50 39° SW 23:24:56 10° SSE night (unlit)
07 Dec - 14:23:13 10° SSE 14:24:37 12° SE 14:26:01 10° ESE daylight
07 Dec - 15:57:28 10° WSW 16:00:43 63° NW 16:04:00 10° NE daylight
07 Dec - 17:35:56 10° NW 17:37:46 14° NNW 17:39:35 10° NNE visible
07 Dec - 20:50:46 10° NNW 20:53:04 17° NNE 20:55:21 10° ENE night (unlit)
07 Dec - 22:26:36 10° NW 22:29:55 82° SW 22:33:13 10° SE night (unlit)
08 Dec - 15:05:30 10° SW 15:08:44 64° SE 15:12:01 10° ENE daylight
08 Dec - 16:43:04 10° WNW 16:45:30 19° NNW 16:47:58 10° NNE daylight
08 Dec - 19:59:12 10° NNW 20:00:48 13° NNE 20:02:23 10° NE night (unlit)
08 Dec - 21:34:39 10° NW 21:37:55 50° NE 21:41:08 10° ESE night (unlit)
08 Dec - 23:12:03 10° W 23:14:06 15° SW 23:16:08 10° SSW night (unlit)
09 Dec - 14:13:55 10° SSW 14:16:50 31° SE 14:19:47 10° ENE daylight
09 Dec - 15:50:25 10° W 15:53:19 28° NNW 15:56:15 10° NNE daylight
09 Dec - 17:30:14 10° NNW 17:30:41 10° N 17:31:09 10° N visible
09 Dec - 19:07:52 10° N 19:08:27 10° N 19:09:01 10° NNE visible
09 Dec - 20:42:50 10° NNW 20:45:48 29° NNE 20:48:45 10° E night (unlit)
09 Dec - 22:19:20 10° WNW 22:22:16 30° SW 22:25:12 10° SSE night (unlit)
10 Dec - 13:22:56 10° S 13:24:59 16° SE 13:27:04 10° E daylight
10 Dec - 14:58:00 10° WSW 15:01:12 48° NW 15:04:25 10° NE daylight
10 Dec - 16:36:48 10° NW 16:38:20 13° NNW 16:39:52 10° NNE daylight
10 Dec - 19:51:06 10° NNW 19:53:36 19° NNE 19:56:05 10° ENE night (unlit)
10 Dec - 21:27:04 10° WNW 21:30:21 62° SW 21:33:36 10° SE night (unlit)
11 Dec - 14:05:53 10° SW 14:09:09 85° SE 14:12:27 10° NE daylight
11 Dec - 15:43:48 10° WNW 15:46:01 17° NNW 15:48:15 10° NNE daylight
11 Dec - 18:59:26 10° NNW 19:01:19 14° NNE 19:03:11 10° NE visible
11 Dec - 20:35:02 10° NW 20:38:20 65° NE 20:41:37 10° ESE night (unlit)
11 Dec - 22:13:06 10° WSW 22:14:25 12° SW 22:15:45 10° SSW night (unlit)
12 Dec - 13:14:06 10° SSW 13:17:11 40° SE 13:20:17 10° ENE daylight
12 Dec - 14:51:02 10° W 14:53:46 24° NNW 14:56:31 10° NNE daylight
12 Dec - 18:07:55 10° N 18:08:58 11° NNE 18:09:59 10° NNE visible
12 Dec - 19:43:08 10° NW 19:46:13 35° NNE 19:49:17 10° E visible
12 Dec - 21:19:54 10° WNW 21:22:35 23° SW 21:25:16 10° S night (unlit)
13 Dec - 12:22:48 10° S 12:25:16 20° SE 12:27:46 10° E daylight
13 Dec - 13:58:29 10° WSW 14:01:35 39° NNW 14:04:41 10° NE daylight
13 Dec - 15:37:37 10° NW 15:38:48 11° NNW 15:39:59 10° N daylight
13 Dec - 18:51:20 10° NNW 18:54:00 22° NNE 18:56:41 10° E visible
13 Dec - 20:27:28 10° WNW 20:30:39 46° SW 20:33:50 10° SSE night (unlit)
14 Dec - 11:33:01 10° SE 11:33:26 10° SE 11:33:52 10° ESE daylight
14 Dec - 13:06:12 10° SW 13:09:28 74° NW 13:12:45 10° NE daylight
14 Dec - 14:44:28 10° WNW 14:46:26 15° NNW 14:48:24 10° NNE daylight
14 Dec - 17:59:36 10° NNW 18:01:43 16° NNE 18:03:50 10° ENE visible
14 Dec - 19:35:19 10° NW 19:38:38 84° NE 19:41:56 10° SE visible
